GFSGBSN_850_dewp_069.txt.gz
Dewpoint
-0 2 3 4 4 3 0 -3 -1 -7 -11 -26 -26 -26 -20 -11 -9 -4 -1 -0 0 3 6 6 5 2 -5 -2 -4 -5 -5 -5 -4 -5 -2 -6 -7 -9 -6 -7 -7 -6 -4 -3 -3 -1 -1
-1 -2 0 2 3 3 3 3 2 -0 -6 -8 -25 -26 -27 -25 -19 -12 -6 -1 -0 -1 3 6 5 4 1 -1 -6 -8 -10 -5 -1 -2 -4 -7 -6 -5 -5 -6 -6 -2 -2 -2 -2 -2 -1
-0 -3 -5 -3 -1 2 3 3 3 3 -0 -2 -11 -19 -25 -28 -28 -24 -14 -7 -2 -7 -1 4 5 5 3 -1 -5 -5 -13 -1 -2 -4 -6 -5 -4 -4 -4 -5 -5 -3 -2 1 3 -2 -2
1 -2 -4 -6 -5 -5 0 2 2 2 2 1 -1 -6 -18 -25 -29 -29 -24 -17 -12 -7 -1 -0 3 4 3 -4 -4 -5 -5 -0 -1 -3 -4 -4 -3 -3 -4 -4 -5 -4 -4 -3 4 1 -2
0 1 -1 -4 -7 -4 -5 -3 1 2 2 2 2 0 -4 -18 -23 -30 -28 -17 -10 -2 -1 -2 1 5 -1 -4 -5 -7 -7 -3 -1 -2 -1 -2 -2 -3 -4 -4 -4 -5 -4 -1 -1 -3 -3
-16 -13 -1 0 -2 -6 -4 -4 -5 -1 3 2 2 2 1 -2 -15 -27 -28 -19 -8 -8 0 2 4 3 -1 -5 -5 -6 -8 -5 -3 -2 -1 -2 -3 -2 -3 -3 -1 -4 -4 -5 -4 -2 -3
-20 -22 -22 -21 -6 -6 -7 -5 -4 -6 1 2 2 2 2 2 -6 -19 -24 1 4 6 5 -2 -2 -5 -5 -6 -2 -4 -7 -6 -3 -2 -1 -3 -2 -1 -3 -4 -5 -5 -5 -3 -4 -4 -3
-21 -22 -23 -24 -24 -22 -15 -8 -6 -4 -5 1 1 2 2 3 -1 -10 -3 2 2 5 1 -2 -1 -2 -1 -1 -2 -5 -4 -4 -4 -1 -3 -2 -0 -3 -4 -7 -6 -5 -3 -2 -3 -5 -3
-22 -23 -25 -25 -24 -23 -16 -3 -4 -8 -5 -6 -1 1 1 2 1 -8 4 3 4 5 3 -4 -6 -4 -5 -3 -2 -4 -4 -5 -4 -2 -3 -2 -2 -4 -3 -3 -2 -2 -1 -1 -2 -3 -4
-23 -24 -24 -23 -21 -21 -16 -3 -1 -3 -9 -4 -6 -0 1 2 -3 2 3 4 5 6 3 -8 -1 -2 -5 -5 -4 -5 -5 -6 -5 -3 -4 -4 -5 -3 -2 -2 -2 -1 -3 -3 -2 -1 4
-24 -24 -22 -15 -10 -7 -6 -4 -1 -2 -5 -6 -4 -2 1 1 4 5 4 6 7 6 -7 -9 -4 -2 -5 -4 -13 -7 -5 -7 -5 -5 -5 -4 -4 -2 -2 -2 -4 -2 -2 -2 -1 -0 -1
-22 -15 -7 -4 -3 -0 -0 0 -0 0 -1 -2 -3 -5 0 1 2 4 6 7 7 3 -3 -7 -2 -2 -1 -4 -9 -9 -6 -6 -7 -6 -6 -5 -6 -5 -4 -4 -3 -3 -2 -1 -0 0 3
-3 -2 -2 -2 -1 -0 -0 -0 -0 0 0 -1 -1 -6 -1 2 2 1 5 6 3 -2 -11 -10 -1 -1 -0 -2 -4 -7 -6 -4 -4 -2 -2 -4 -3 -5 -4 -2 -2 -1 1 4 4 4 3
-1 -1 -1 -1 -0 -0 -1 -0 -1 -1 -1 0 -0 -4 -4 1 1 4 5 6 -0 -7 -7 -4 -3 0 1 -4 -5 -5 -5 -3 -5 -5 -3 -2 -1 -4 -4 -2 -1 -1 -0 4 5 5 2
-1 -0 -0 -0 -0 -0 -0 -0 -0 -0 -1 0 1 -0 -0 2 0 2 3 5 -3 -8 -10 -10 -3 2 1 -3 -5 -5 -4 -4 -5 -5 -3 -3 -3 -6 -5 -4 -3 -1 1 -2 2 1 3
-0 -0 -0 -0 -0 -0 -0 -0 0 0 -0 0 1 1 -1 2 1 3 3 4 -2 -10 -13 -6 -6 -1 1 -1 -3 -4 -4 -7 -6 -7 -7 -5 -2 -6 -5 -4 -4 -1 -1 2 1 4 5
-0 0 -0 -0 -0 -0 -0 -0 0 0 1 1 1 1 -1 2 1 3 3 2 -0 -8 -9 -5 -3 -5 -1 0 -3 -2 -4 -7 -8 -6 -6 -5 -3 -3 -2 -1 -2 -1 1 -0 -1 1 4
0 0 0 0 -0 -0 -0 -0 0 0 1 1 1 2 -0 1 2 2 3 -0 -2 -4 -7 -5 -0 -1 -3 -1 -1 -2 -0 -5 -7 -7 -4 -4 -3 -1 -1 -4 -6 -3 -1 -1 3 1 1
0 1 1 0 0 0 -0 0 0 1 1 1 1 1 0 1 2 3 -1 -1 -3 -3 -5 -3 -1 -1 -0 3 1 -2 -2 -5 -6 -6 -3 -4 -2 1 -1 -2 -2 -1 -1 -1 -1 -0 2
0 0 1 1 1 1 1 -0 1 1 1 1 0 2 2 2 -2 -1 -1 -2 -2 -4 -3 -6 -2 -3 -0 2 2 0 -1 -3 -3 -5 -6 -2 -3 -1 1 -1 -2 -1 -3 -3 -1 5 2
0 1 1 1 1 1 1 0 1 1 1 1 0 0 0 2 2 -1 -3 -5 -4 -4 -4 -3 -2 -1 -0 1 1 3 -0 -1 -0 -3 -2 -2 -1 -3 -4 -5 -6 -5 -4 -4 -2 -2 1
1 1 2 1 2 1 2 1 0 1 1 1 -0 -2 -3 -3 0 -0 -2 -3 -5 -6 -6 -4 -1 -3 -2 -1 1 2 2 -0 -2 -2 -1 -2 1 -1 -2 -4 -5 -5 -7 -6 -6 -7 -6
-1 -1 -2 -2 -2 -3 1 1 1 1 1 1 -0 -3 -3 -1 -0 0 0 -2 -5 -7 -7 -7 -6 -3 -1 -2 1 1 0 -0 -0 2 1 -0 2 0 2 -3 -3 2 -3 -5 -5 -6 -5
-3 -3 -2 -2 -1 -1 -2 1 2 1 1 1 -0 -2 -1 0 0 -1 -3 -3 -5 -7 -6 -7 -6 -3 -5 0 0 1 1 0 -1 -1 -0 1 1 2 6 7 7 -1 -4 -5 -4 -5 -5
1 -1 -2 -2 -3 -2 -1 -2 2 1 2 1 0 -1 -2 3 -3 -2 -3 -4 -5 -8 -6 -7 -6 -3 -4 0 1 1 4 3 2 -1 -1 0 3 6 7 6 0 -3 -2 -2 -3 -3 -6
0 1 -0 -1 -1 -2 -2 -1 -2 0 2 1 0 -1 -2 1 -1 -4 -3 -4 -4 -5 -5 -6 -7 -5 -1 -1 2 1 5 3 6 2 1 0 3 6 6 6 7 -1 -4 -3 -5 1 -4
-0 -1 -1 0 -0 -0 -1 -1 -2 -1 1 0 1 -1 -1 -2 -4 -5 -3 -3 -5 -5 -4 -6 -3 3 -1 4 6 4 1 -1 3 8 7 6 6 9 7 7 1 -4 -4 -3 3 3 -5
0 -0 -1 -1 -0 -0 -0 -1 -1 -1 -1 0 1 -1 -1 -2 -3 -3 -3 -4 -4 -5 -2 -5 1 3 4 4 3 1 5 2 -1 -0 5 6 7 9 7 9 8 -1 -1 1 1 -3 -2
0 0 -0 -1 -1 -0 0 -0 -1 -1 0 0 1 -1 -1 -2 -2 0 -3 -0 -3 -5 -6 -5 -0 -1 -1 1 2 1 7 8 1 3 -2 7 4 6 4 4 1 -1 -2 -2 -1 0 -1

GFSGBSN_850_dewp_072.txt.gz
Dewpoint
-4 -4 -3 -2 0 1 2 3 -0 -5 -9 -9 -14 -24 -27 -29 -29 -28 -24 -18 -13 -9 -6 -5 -4 4 1 2 -1 -2 -4 -7 -5 -5 -5 -3 -7 -8 -8 -8 -8 -7 -8 -6 -7 -6 -5
-4 -6 -6 -6 -3 0 0 2 3 2 -0 -3 -6 -12 -23 -27 -30 -30 -30 -29 -24 -14 -11 -10 -3 2 5 4 -4 -6 -5 -6 -4 -4 -2 -4 -7 -8 -6 -6 -6 -7 -3 -4 -1 0 -1
1 -0 -3 -4 -4 -5 -4 -3 1 2 2 1 0 -6 -12 -15 -26 -29 -32 -32 -31 -24 -18 -14 -3 3 6 1 -8 -5 -4 -2 -1 -1 -3 -6 -8 -5 -5 -4 -5 -6 -5 -3 3 -0 -1
1 2 1 -1 -4 -5 -4 -6 -6 -0 1 2 2 1 -2 -10 -18 -26 -31 -33 -32 -22 -15 -7 -2 2 2 -11 -3 -3 -3 -4 -2 -3 -5 -5 -5 -4 -4 -4 -5 -4 -5 -2 1 2 1
-10 -10 -4 0 1 -2 -5 -6 -5 -7 -2 1 3 2 2 -2 -6 -19 -29 -32 -33 -21 -15 -8 -4 3 1 -5 -4 -4 -6 -6 -2 -2 -4 -4 -3 -3 -4 -3 -2 -5 -3 -3 0 1 -0
-12 -15 -17 -17 -14 -3 -2 -8 -11 -5 -6 -3 2 2 2 2 1 -8 -24 -31 -29 -2 4 2 4 1 -1 -7 -6 -4 -6 -8 -3 -2 -3 -3 -3 -3 -3 -2 1 -1 -2 -2 -3 -2 -2
-16 -17 -18 -19 -20 -21 -18 -8 -16 -13 -6 -7 -0 1 2 2 2 -1 -17 -25 1 7 7 3 -0 -2 -7 -4 -6 -5 -7 -8 -5 -3 -1 -3 -1 -1 -2 -2 -3 -4 -4 -5 -1 -3 -3
-16 -17 -19 -20 -21 -22 -22 -22 -18 -12 -12 -6 -6 -0 0 1 1 1 -8 4 -1 4 2 -2 -0 0 -2 -2 -1 -4 -6 -8 -6 -3 -3 -2 -0 -4 -4 -4 -6 -6 -4 -4 -4 -4 -4
-16 -17 -18 -20 -21 -22 -22 -22 -22 -11 -3 -10 -8 -6 -2 0 1 -3 -5 -2 3 4 3 -4 -6 -7 -7 -5 -2 -3 -6 -9 -6 -3 -3 -0 -2 -3 -3 -3 -3 -4 -2 -2 -1 -3 -3
-16 -17 -18 -20 -21 -22 -21 -18 -15 -12 0 -1 -7 -6 -5 0 -1 3 1 2 3 5 4 -9 -9 -6 -8 -7 -6 -4 -4 -6 -6 -5 -4 -3 -4 -3 -3 -2 -3 -1 -4 -3 -3 -2 1
-16 -18 -19 -20 -21 -21 -16 -10 -10 -10 -5 -0 -3 -9 -5 -0 1 3 5 5 5 6 -2 -15 -11 -4 -6 -7 -9 -8 -4 -5 -4 -5 -5 -3 -4 -4 -1 -3 -4 -2 -4 -1 -2 -1 -0
-18 -20 -20 -18 -14 -8 -2 -0 -0 -1 -1 -1 -1 -4 -4 -2 1 -3 5 5 6 5 -3 -10 -4 -3 -4 -6 -8 -10 -7 -5 -6 -6 -5 -5 -7 -6 -5 -4 -4 -5 -3 -2 -1 0 4
-20 -22 -17 -7 -1 -2 -1 -1 -0 -0 -0 -0 -0 -1 -3 -0 1 1 2 3 5 2 -11 -12 -4 -3 -3 -3 -5 -6 -7 -3 -2 -2 -1 -4 -5 -7 -6 -4 -4 -3 -0 4 7 6 6
-10 -7 -4 -1 0 -0 -1 -1 -0 -0 0 0 0 -0 -1 -1 1 2 3 5 5 -6 -5 -9 -10 -2 -1 -2 -3 -4 -6 -5 -3 -5 -3 -2 -1 -5 -5 -3 -2 -1 0 6 11 9 5
-4 -2 -1 -0 -1 -1 -1 -1 -1 0 -0 -1 -0 1 0 1 1 2 3 5 2 -4 -11 -8 -6 -2 1 -2 -3 -2 -3 -4 -4 -5 -2 -1 -2 -7 -5 -5 -4 -0 1 -1 4 5 8
-1 -1 -1 -1 -0 0 0 -0 0 -0 -0 -0 0 1 1 0 -1 2 3 2 -1 -3 -7 -8 -7 -4 1 0 -2 -3 -3 -5 -4 -6 -5 -3 0 -5 -6 -5 -5 -3 -3 2 2 7 6
-1 -1 -1 -0 -0 0 0 0 0 0 0 1 1 1 1 0 -0 2 3 1 -1 -5 -3 -5 -8 -6 -8 -2 -1 -3 -4 -3 -5 -4 -5 -4 -1 -2 -5 -4 -3 -2 -1 2 0 1 6
-1 -1 -0 0 0 0 0 -0 0 1 1 1 1 1 1 0 2 2 2 -0 -3 -6 -6 -4 -3 -3 -6 -5 1 -2 -2 -3 -4 -5 -3 -4 -2 1 -3 -5 -5 -4 -1 1 5 3 4
-1 -0 0 0 0 0 0 0 -0 0 1 1 1 1 1 1 2 1 -0 -1 -3 -4 -6 -5 -3 -3 -3 1 -0 -1 -1 -2 -3 -2 -3 -3 -1 2 0 -3 -2 -2 -3 -2 -0 1 4
-1 -0 -0 0 0 1 1 0 0 0 1 1 0 1 1 2 -1 -1 0 -1 -1 -4 -5 -6 -3 -4 3 0 1 2 -0 -1 -3 -1 -1 1 -0 0 3 1 -1 -1 -3 -3 0 6 4
-1 -1 -0 -0 -0 0 0 1 1 1 1 1 -0 1 1 2 2 -0 -1 -3 -2 -2 -5 -5 -4 -3 -0 5 -1 1 1 -1 -3 -3 -0 2 3 -0 -2 -4 -4 -3 -2 -2 -2 -1 3
-1 -0 -0 -0 -0 0 1 1 1 1 1 1 -0 -0 -2 -2 -1 1 0 -0 -3 -5 -6 -4 -3 -3 -2 5 5 3 -1 1 2 1 1 -1 3 0 1 -3 -3 -3 -3 -3 -4 -4 -4
-1 -2 -2 -2 -0 1 1 1 1 1 1 1 1 -1 -2 -1 1 1 1 -1 -2 -5 -7 -8 -6 -4 0 3 3 6 3 1 1 2 4 2 2 2 4 -0 -2 1 -2 -4 -5 -5 -5
-2 -2 -2 -1 -1 -1 -1 2 2 1 1 1 1 -0 -0 2 -1 2 -2 -2 -3 -4 -4 -8 -8 -5 -4 -1 4 4 4 2 1 1 1 4 4 2 6 6 6 -1 -4 -5 -4 -5 -5
-2 -2 -2 -2 -2 -2 -1 -2 0 2 1 1 1 -0 -1 3 -2 -3 -1 -2 -3 -4 -4 -6 -8 -9 -9 -5 4 5 6 4 2 1 1 1 5 8 7 6 2 -1 -2 -2 -1 -1 -4
-0 -1 -0 -1 -1 0 -2 -0 -1 -1 2 1 1 0 -1 1 0 -4 -2 -3 -1 -2 -2 -4 -7 -9 -7 0 4 7 6 4 3 1 -0 0 3 7 8 6 7 2 -2 -3 -2 2 -3
0 -0 -0 -0 0 -1 0 -3 -1 -0 -0 1 1 1 -0 -0 -3 -4 -1 -1 -3 -3 -2 -4 -5 -3 -2 3 6 7 5 -3 3 6 5 5 6 7 7 8 5 -1 -2 -3 3 3 -1
0 -0 -1 0 1 0 0 -3 -2 -1 -1 1 1 1 1 1 -2 -3 -1 -1 -2 -3 -1 -4 -3 -2 3 3 4 5 5 1 -1 3 6 7 7 8 7 8 7 -1 -1 0 1 -1 -2
1 0 -1 0 0 0 0 -1 -2 -1 -0 0 0 1 1 1 1 1 -2 -0 1 -1 -5 -5 -4 -1 2 3 3 3 6 6 1 3 2 5 7 7 5 6 4 1 -1 -1 -1 -0 0

GFSGBSN_850_dewp_075.txt.gz
Dewpoint
-5 -5 -6 -7 -5 -3 1 2 -1 -2 0 -2 -5 -10 -21 -25 -27 -31 -32 -33 -33 -33 -30 -23 -17 -13 -8 2 -3 -14 -2 -4 -6 -6 -8 -8 -3 -3 -6 -8 -8 -5 -6 -6 -2 -3 -2
1 -0 -4 -6 -7 -6 -5 -1 -3 -3 -1 2 -1 -1 -6 -15 -23 -27 -30 -33 -34 -34 -32 -26 -18 -10 -1 6 -16 -3 -2 -6 -6 -5 -6 -7 -3 -4 -7 -5 -4 -6 -6 -5 -2 -2 -2
3 2 3 0 -2 -6 -7 -7 -8 -8 -7 0 1 2 0 -4 -11 -23 -26 -31 -33 -33 -32 -21 -8 1 2 -14 -21 -4 -2 -4 -4 -3 -3 -6 -5 -5 -7 -3 -4 -4 -3 -4 1 -0 -1
-7 -7 -5 -0 2 0 -4 -5 -10 -7 -7 -8 -1 0 2 1 -4 -14 -23 -28 -33 -33 -32 -21 -6 2 2 -29 -23 -14 -6 -4 -4 -1 -1 -4 -4 -5 -5 -4 -3 -3 -4 -2 -5 1 -0
-3 -10 -13 -14 -13 -7 -2 -8 -13 -13 -11 -6 -7 -2 1 2 0 -9 -18 -27 -32 -32 -29 -5 -3 2 3 -2 -4 -10 -5 -3 -4 -3 -2 -4 -5 -3 -3 -1 -0 -1 -0 -2 -3 0 1
-1 -3 -13 -15 -17 -18 -18 -18 -10 -15 -18 -14 -7 -6 1 1 1 -3 -12 -23 -32 -31 -14 5 6 3 -3 -7 -7 -5 -5 -5 -5 -4 -2 -3 -3 -1 -1 -1 2 1 -0 -1 -1 1 2
0 -3 -11 -15 -17 -18 -19 -21 -21 -21 -21 -19 -14 -7 -3 0 -1 -2 -6 -19 -1 4 6 5 2 -8 -11 -7 -3 -6 -4 -6 -7 -7 0 -2 -0 1 -1 -2 -2 -1 -1 -3 -4 -3 -2
0 -3 -9 -14 -16 -17 -19 -20 -20 -21 -20 -11 -13 -11 -7 -5 -2 -2 -2 -9 -0 3 4 3 2 4 2 -10 1 -2 -5 -6 -7 -5 -2 0 1 -1 -2 -3 -2 -2 -4 -3 -4 -1 -1
0 -0 -7 -14 -15 -16 -17 -17 -17 -13 -15 -8 -1 -3 -7 -6 -4 -2 -1 -3 -1 1 4 2 -1 -3 -7 -5 0 -3 -3 -5 -6 -5 -3 1 0 -2 -2 -2 -2 -3 -3 -2 -1 -3 -2
-0 -1 -3 -11 -14 -16 -18 -19 -20 -19 -19 -18 -3 -1 -6 -6 -5 2 4 5 3 3 6 0 -4 -5 -5 -9 -4 -8 -4 -4 -7 -5 -4 -2 -2 -1 -1 -1 -2 -1 -2 -2 -0 -1 1
-1 -1 -2 -11 -15 -16 -17 -17 -18 -18 -16 -13 -13 -1 -2 -6 -4 -1 3 6 5 5 1 -10 -10 -8 -8 -7 -8 -7 -13 -3 -6 -6 -4 -3 -1 -1 -1 -1 -2 -1 -1 -1 -0 1 1
-1 -1 -4 -10 -14 -17 -16 -17 -13 -9 -5 -4 -6 -6 -0 -4 -5 -9 0 4 3 6 6 -6 -4 -3 -4 -7 -7 -8 -7 -5 -4 -5 -5 -4 -6 -4 -3 -3 -3 -3 -2 -1 -0 1 5
-3 -5 -11 -10 -11 -12 -13 -7 -3 -3 -1 -1 -1 -2 -0 -1 -6 1 3 3 5 6 -10 -13 -3 -2 -2 -4 -6 -6 -5 -4 -1 0 -0 -2 -4 -5 -5 -4 -3 -3 -0 5 7 6 7
-3 -2 -2 -3 -5 -3 -3 -1 -0 -1 -1 -1 -1 -1 -0 -0 -5 0 2 4 5 -3 -3 -6 -6 -4 -0 -2 -4 -5 -5 -4 -2 -2 -1 -0 0 -4 -5 -4 -1 -1 1 7 9 9 8
-4 -4 -5 -7 -6 -3 -2 -1 -1 -1 -1 -1 -1 1 1 0 -1 -0 2 4 2 -1 -5 -6 -7 -7 -1 -2 -1 -3 -3 -3 -4 -3 -1 -1 -1 -6 -6 -5 -3 1 2 1 7 6 8
-4 -4 -4 -6 -3 -1 -2 -2 -1 -0 -0 -0 1 1 0 -0 -1 0 2 1 -1 -3 -6 -5 -2 -3 -3 -1 1 0 -0 -2 -3 -5 -4 -1 1 -4 -5 -4 -3 -2 -1 3 3 8 9
-4 -4 -4 -4 -2 -1 -1 -1 -0 0 0 1 1 1 1 -1 0 1 2 0 -1 -3 -5 -4 -4 -3 -1 1 1 2 -1 -2 -4 -5 -4 -4 -1 -0 -3 -2 -1 -1 -1 -0 3 5 6
-3 -4 -3 -3 -2 -1 -1 -0 0 1 1 1 1 1 1 -1 2 1 -0 -2 -3 -2 -4 -4 -4 -4 -0 -0 -0 2 3 -1 -5 -3 -3 -3 1 2 -0 -3 -4 -3 -1 1 7 5 5
-4 -4 -3 -2 -1 -1 -0 0 1 1 0 0 0 1 1 0 2 1 -1 -1 -2 -1 -2 -3 -3 -5 -4 -2 2 5 4 1 -3 -2 -1 -0 2 5 2 -1 -3 -2 -2 -1 1 3 5
-3 -2 -2 -1 -1 -0 -0 0 0 0 0 0 -0 1 1 2 1 0 1 -0 0 -2 -2 -3 -3 -4 -3 -1 1 6 6 4 -1 -1 -2 -0 3 4 4 2 -0 -0 -1 -2 0 4 4
-1 -1 -1 -1 -0 -0 -0 0 0 0 0 0 -0 0 1 2 2 1 -1 -1 -0 0 -3 -3 -2 -2 -2 -1 3 4 5 6 3 -1 1 1 3 2 1 -2 -1 -0 -0 -1 -1 0 5
-1 -1 -1 -1 -1 -0 -0 0 1 0 0 1 -0 1 0 -1 -0 2 1 2 -0 -1 -3 -2 -1 -3 -3 -2 2 3 4 7 6 1 0 0 2 1 3 1 -2 -1 -1 -2 -2 -1 -2
-1 -1 -1 -1 -1 -1 -1 -1 -0 1 1 1 1 -0 -0 -0 1 1 1 -0 0 -1 -3 -4 -4 -3 -3 -3 1 3 5 6 6 5 3 1 3 3 4 2 1 2 -0 -2 -2 -2 -2
-0 -0 -1 -1 -1 -1 -0 0 0 0 1 1 1 1 -0 2 -1 2 -1 -1 -1 -1 0 -4 -5 -4 -5 -7 2 3 3 5 5 4 3 4 5 5 6 4 5 0 -3 -3 -2 -3 -4
-3 -3 -3 -2 -2 -1 -1 -2 -0 1 1 1 1 1 0 0 1 -1 0 -1 -1 -2 -1 -2 -4 -5 -7 -6 3 5 6 5 5 4 3 2 5 6 6 5 3 1 -2 -2 -2 -1 -4
-2 -2 -1 -2 -2 -2 -3 -1 -1 -1 1 1 1 1 0 -0 -0 -1 -1 -1 -1 -1 -1 -2 -3 -5 -6 -4 2 3 5 6 6 5 2 3 4 6 7 7 6 3 0 -3 -3 2 -3
-1 -1 -1 -1 -1 -1 -2 -2 -2 -1 0 1 1 1 1 0 -2 -2 -2 -1 -2 -2 -1 -2 -3 -2 -4 0 1 3 3 4 6 5 4 4 6 6 6 8 6 2 -1 -2 2 2 -3
0 0 0 0 0 0 0 -0 -1 -2 -0 0 2 1 1 1 0 -2 -2 -2 -2 -2 -0 -2 -1 -1 -0 1 2 3 3 3 2 3 4 5 5 6 6 7 9 1 -1 1 1 -1 -4
0 1 1 0 -0 0 0 0 -0 -1 -1 0 1 0 1 1 1 -0 -1 -1 -2 -1 -1 -3 -3 -3 -1 2 3 3 3 2 1 3 3 6 6 6 6 5 3 3 -0 1 -1 -0 1

GFSGBSN_850_dewp_081.txt.gz
Dewpoint
2 2 2 2 0 -2 -4 -6 -6 -5 -4 -4 -5 -5 -6 -4 -10 -18 -25 -23 -23 -26 -29 -31 -32 -32 -29 -8 -24 -28 -7 -6 -4 -4 -5 -8 -10 -4 -3 -4 -6 -7 -7 -5 -4 -4 -3
2 1 1 2 2 2 1 -2 -5 -7 -7 -7 -7 -7 -9 -6 -9 -14 -20 -24 -25 -23 -25 -28 -30 -30 -11 2 -21 -20 -15 -19 -16 -4 -5 -6 -8 -8 -4 -3 -5 -5 -4 -4 -4 -4 -3
1 0 -2 -3 -4 -2 0 2 1 -2 -6 -10 -12 -12 -8 -11 -9 -12 -16 -18 -22 -25 -22 -24 -28 -24 -6 -25 -27 -27 -21 -2 -5 -3 -4 -4 -5 -6 -3 -2 -3 -3 -3 -4 -5 -4 -2
1 1 1 1 1 -4 -12 -9 -7 -8 -9 -6 -12 -17 -16 -13 -13 -12 -15 -17 -19 -23 -25 -23 -26 -17 -7 -28 -26 -28 -27 -22 -2 -2 -3 -2 -1 -3 -2 -3 -3 -2 -2 -2 -5 -4 -3
1 1 1 1 1 -2 -6 -14 -15 -15 -16 -18 -15 -17 -19 -18 -16 -15 -16 -19 -21 -23 -27 -23 -21 -10 -6 -16 -14 -7 -4 -7 -8 -2 -4 -3 0 -0 -1 -1 -1 -1 -0 -1 -1 -4 -3
1 1 1 1 1 1 -4 -11 -15 -16 -17 -18 -19 -18 -19 -20 -19 -18 -18 -16 -8 -7 -18 -19 2 0 -18 -18 -5 -2 -2 -3 -10 -6 -3 -3 -2 -1 -1 -0 2 0 1 -0 -0 -2 -0
0 0 0 0 0 1 -1 -11 -14 -16 -17 -18 -18 -19 -20 -20 -20 -21 -17 -16 -3 0 2 2 3 -1 -7 -3 -6 -4 -1 -2 -5 -3 -2 -2 -0 1 -0 -1 -2 -1 -0 0 -1 -3 -1
-1 -1 -1 -1 -0 -0 0 -0 -9 -15 -16 -17 -17 -18 -20 -21 -20 -21 -2 2 2 2 3 1 -2 -1 -1 -1 3 -9 -3 -2 -3 -2 -2 -1 2 -1 -2 -2 -1 -0 0 0 -1 -3 -1
-1 -1 -2 -1 -1 -1 -0 0 0 -7 -14 -16 -17 -18 -19 -21 -19 -19 -1 3 2 3 4 2 -5 -1 -4 -4 0 -4 -6 -3 -4 -2 -2 -1 -0 -1 -1 -0 0 0 1 1 0 -2 -3
-2 -0 -1 -2 -1 -1 -1 -1 -0 -1 -14 -15 -16 -16 -17 -20 -14 -7 2 2 0 4 4 -0 1 -4 -3 -2 2 -7 -4 -4 -4 -3 -4 -3 -4 -1 -0 -0 -0 2 -0 -0 -0 0 2
-3 -3 -3 -2 -2 -2 -2 -2 -1 -1 -3 -13 -15 -12 -11 -17 -11 -14 -13 -9 1 4 -13 -13 -4 -5 -3 -6 -11 -5 -7 -4 -3 -4 -5 -3 -2 -3 -0 1 -1 1 -1 0 0 1 1
-3 -3 -2 -2 -2 -2 -2 -2 -2 -2 -3 -4 -5 -4 -2 -10 -9 -11 -14 -10 3 3 -0 -7 -6 -3 -3 -5 -7 -5 -3 -5 -6 -4 -5 -5 -5 -4 -3 -3 -1 -1 -0 -0 1 1 4
-3 -3 -4 -1 -2 -2 -3 -3 -4 -3 -3 -6 -3 -3 -2 -3 -6 -7 -5 -0 4 3 -4 -6 -4 -7 -7 -5 -5 -7 -3 -3 -0 -1 0 -4 -5 -6 -4 -1 -2 -1 -0 4 4 4 4
-4 -4 -3 -3 -3 -4 -3 -2 -3 -2 -5 -7 -3 -2 -1 -2 -3 -3 -2 2 4 -0 -0 -3 -5 -6 -8 -1 -0 1 -4 -2 -5 -2 -1 0 0 -5 -6 -3 -2 -0 1 5 5 6 5
-3 -3 -3 -3 -2 -3 -3 -3 -3 -4 -6 -4 -2 -1 -1 -3 -1 -0 -0 1 -3 -1 -4 -3 -4 -3 -2 -4 -1 1 2 -1 -6 -5 0 1 -1 -4 -6 -5 -4 -1 1 -1 3 6 7
-4 -5 -5 -5 -4 -4 -4 -4 -4 -5 -4 -2 -2 -0 -0 -4 -1 1 -0 -4 -3 -4 -4 -4 -2 -3 -2 -4 -2 2 2 1 0 1 -5 -0 1 -2 -4 -5 -4 -3 -1 3 5 7 8
-5 -5 -5 -4 -4 -4 -4 -4 -3 -5 -4 -3 -0 0 -1 -4 -1 1 -0 -2 -3 -7 -6 -2 -2 -3 -4 -5 -5 1 2 -0 2 3 4 -1 -1 0 -3 -2 -2 -0 1 1 2 5 6
-5 -5 -5 -5 -5 -5 -5 -4 -3 -5 -4 -2 -0 0 -1 -2 1 -0 -1 -3 -5 -5 -4 -4 -3 -3 -2 -2 -3 -2 0 -1 1 3 4 4 1 1 -1 -3 -4 -4 -2 2 4 5 5
-5 -5 -5 -5 -5 -5 -5 -5 -4 -6 -3 -1 -0 0 -0 -1 -0 0 -1 -2 -4 -5 -4 -3 -1 -3 -4 -3 -1 -2 -2 0 2 4 5 5 5 3 1 -1 -3 -1 -1 -1 2 4 6
-5 -5 -6 -6 -7 -8 -7 -7 -6 -6 -4 -1 -0 0 1 1 -0 -2 -1 1 1 -3 -4 -4 -2 -2 -1 -1 -2 0 1 0 1 3 5 5 7 7 4 -0 -1 1 -0 -0 1 4 3
-6 -6 -6 -6 -6 -5 -4 -4 -5 -5 -3 -1 -0 -1 1 1 1 0 -2 -2 1 1 -3 -3 -2 -3 -2 -1 -1 -1 -3 -2 1 4 3 6 7 4 2 -1 1 2 2 1 2 1 2
-5 -5 -4 -4 -3 -3 -3 -4 -4 -3 -2 -1 -1 -0 1 -1 -1 1 -0 -0 -2 -1 -2 -1 -1 -1 -1 -1 -1 -3 -3 -4 2 4 3 4 7 5 4 -0 -1 1 3 3 3 2 -1
-3 -3 -2 -2 -2 -2 -1 -1 -2 -2 -1 -0 -0 -0 0 -1 -1 1 1 -1 -1 -2 -2 -2 -3 -2 -1 -2 -2 -3 -4 -3 1 4 4 4 6 6 5 4 4 6 4 2 2 2 1
-2 -2 -1 -1 -2 -2 -2 -2 -1 -1 -1 -1 -0 -0 0 1 -1 -0 -1 -0 -1 -1 -1 -3 -2 -2 -3 -3 -3 -3 -2 -2 -2 3 3 4 4 5 5 3 8 4 2 1 1 1 0
-1 -1 -1 -1 -1 -1 -1 -1 -1 -1 -1 -1 -0 0 -0 0 0 -1 -1 -1 -1 -1 -2 -1 -1 -2 -1 -2 0 1 2 3 3 3 4 3 4 6 7 5 3 3 3 2 3 2 -0
-1 -4 -3 -4 -4 -3 -1 -0 -0 -0 -0 -1 -0 -0 0 1 -0 -1 -1 -2 -1 0 -0 -1 -2 -2 -3 -1 1 4 1 1 2 5 3 4 4 6 6 8 6 2 0 -1 -1 5 -1
-5 -5 -6 -6 -4 -3 -3 -3 -1 -0 -0 -1 -0 -1 1 0 -0 -1 -1 -0 -2 -2 -0 -1 -1 -1 -1 1 3 3 3 -0 1 3 5 5 5 6 7 7 5 2 3 2 6 5 -0
-4 -5 -6 -6 -4 -3 -3 -3 -3 -2 -0 -0 -0 -0 0 0 1 -1 -2 -1 -1 -2 -0 -2 -1 -1 -0 1 1 1 -0 -0 0 1 3 4 5 6 6 7 6 3 4 3 3 -0 -0
-4 -5 -4 -2 -1 -2 -2 -2 -2 -2 -2 -0 0 -0 -0 0 1 0 -1 -2 -3 -5 -2 -2 -2 -1 -1 -0 -0 -0 -0 -1 0 0 0 3 3 5 5 6 3 3 3 3 2 2 2

GFSGBSN_850_dewp_087.txt.gz
Dewpoint
2 1 1 1 1 0 0 1 2 2 2 1 -6 -12 -15 -17 -18 -17 -17 -16 -15 -16 -17 -17 -20 -26 -23 -22 -27 -24 -28 -3 -1 -1 -2 -5 -7 -4 -3 -4 -5 -5 -6 -6 -6 -6 -4
1 1 1 1 0 1 0 0 -1 -2 -2 -4 -7 -13 -16 -18 -20 -21 -21 -20 -19 -17 -18 -18 -16 -19 -15 -11 -25 -19 -19 -16 -3 -4 -3 -4 -8 -9 -4 -4 -4 -4 -6 -5 -4 -4 -4
1 1 1 1 1 1 1 1 1 0 -5 -11 -14 -17 -19 -20 -21 -21 -22 -22 -22 -22 -22 -20 -18 -15 -10 -30 -29 -28 -28 -25 -13 -11 -9 -5 -7 -6 -5 -3 -4 -3 -2 -3 -4 -5 -5
0 0 0 1 0 1 1 1 1 1 -1 -8 -15 -17 -18 -19 -20 -21 -22 -22 -22 -23 -22 -17 -15 -13 -13 -29 -31 -32 -30 -26 -23 -4 -6 -6 -4 -5 -4 -4 -2 -2 -2 -2 -6 -4 -3
-1 -1 -0 -0 -0 0 0 1 1 1 1 -1 -13 -16 -17 -18 -19 -20 -22 -23 -21 -11 -8 -11 -14 -11 -16 -22 -23 -7 -2 -5 -9 -17 -2 -2 -1 -1 -2 -2 -2 -1 -2 -2 -4 -3 -2
-1 -1 -0 -1 -1 -0 -0 -0 -0 0 0 -0 -6 -15 -17 -18 -18 -20 -21 -22 -13 -1 1 -6 0 -4 -20 -17 -10 -2 -0 -1 -3 -5 -4 -1 -1 1 0 -1 -3 -4 0 -0 -1 -2 -3
-2 -1 -1 -1 -1 -2 -2 -1 -1 -0 0 0 -0 -10 -15 -16 -19 -19 -20 -17 -8 -2 -5 -2 -1 -3 -13 -9 -6 -2 0 -1 -3 -7 -2 0 0 3 1 0 -3 -3 -1 -1 -2 -3 -3
-2 -2 -2 -2 -2 -0 -1 -2 -1 -1 -0 -0 -0 -3 -14 -16 -18 -19 -12 -0 -1 -1 1 -1 -3 -3 -4 -2 0 -3 -1 -1 -3 -3 -2 -0 2 -0 -1 -0 -0 -1 -0 -0 -2 -3 -2
-3 -2 -2 -3 -3 -3 0 -0 -3 -2 -1 -1 -1 -1 -10 -16 -17 -18 -8 1 -6 -3 2 1 0 0 -3 -4 -1 -2 -6 -2 -2 -2 -2 -1 -1 -2 -1 -0 1 0 1 0 -1 -2 -2
-3 -3 -2 -3 -3 -3 -2 -1 -2 -3 -2 -2 -2 -2 -4 -15 -16 -10 -7 2 -9 -1 3 -1 1 -2 -1 -2 -0 -9 -5 -10 -2 -1 -2 -3 -5 -1 -1 -0 -0 1 -1 -1 -1 -0 -2
-2 -3 -5 -4 -5 -4 -4 -4 -3 -4 -4 -2 -2 -2 -2 -5 -10 -12 -11 -12 -13 3 -4 -11 -2 -3 -2 -1 -4 -3 -3 -5 -8 -2 -2 -1 -2 -2 -1 0 -1 -1 -1 -0 -0 1 1
-4 -5 -3 -2 -2 -5 -4 -3 -2 -2 -3 -3 -3 -4 -3 -5 -5 -10 -11 -11 -1 4 -1 -6 -3 -2 -2 -2 -4 -4 -1 -3 -4 -6 -4 -3 -5 -4 -3 -3 -1 -1 -1 0 2 2 5
-1 -4 -4 -3 -4 -3 -3 -5 -3 -1 -2 -4 -6 -4 -4 -3 -3 -4 -6 -6 4 2 -5 -3 -4 -6 -5 -4 -1 -1 -1 -2 -3 -3 -3 -3 -4 -5 -4 -2 -1 -1 1 3 5 5 4
-3 -5 -7 -7 -5 -6 -5 -3 -2 -3 -4 -5 -4 -3 -5 -4 -3 -2 -4 1 1 -5 -0 -4 -5 -5 -2 -7 -4 0 -3 -2 -1 -3 -2 -5 -6 -4 -5 -3 -0 1 1 3 2 5 3
-3 -2 -2 -3 -3 -4 -4 -4 -3 -5 -5 -3 -3 -4 -6 -7 -3 -1 -1 0 -4 -2 -4 -4 -6 -3 -2 -7 -6 -5 1 2 2 3 1 2 -4 -5 -5 -5 -3 1 2 -1 3 5 6
-4 -5 -6 -6 -7 -6 -5 -2 -3 -3 -2 -4 -5 -5 -6 -6 -2 -0 -1 -6 -6 -4 -6 -4 -5 -4 -5 -6 -8 -8 -1 1 2 1 3 3 2 -2 -3 -6 -5 -2 -1 3 2 2 3
-6 -4 -5 -5 -6 -4 -7 -5 -4 -4 -4 -4 -4 -3 -5 -5 -2 -1 -2 -4 -4 -7 -5 -7 -2 -4 -3 -4 -4 -4 -1 -1 -1 -1 3 3 3 1 -2 -3 -3 -2 -2 1 1 3 2
-6 -6 -5 -4 -4 -5 -5 -4 -5 -4 -4 -3 -3 -1 -4 -2 -1 -2 -2 -4 -6 -5 -6 -4 -3 -3 -5 -5 -4 -8 -5 -4 -7 3 3 3 6 7 3 -0 -2 -4 -3 -2 1 0 5
-6 -7 -6 -3 -3 -5 -5 -5 -6 -5 -3 -2 -3 -3 -3 -1 -1 -2 -4 -4 -4 -5 -6 -3 -2 -2 -3 -5 -10 -4 -4 -5 -2 -1 -3 -2 3 1 2 -0 0 2 1 -1 0 1 2
-5 -5 -5 -4 -4 -7 -7 -5 -6 -6 -3 -2 -3 -2 -2 -1 -1 -3 -3 -2 -2 -3 -4 -6 -4 -3 -2 -1 -2 -1 -1 -4 -4 -6 -5 2 2 -2 -1 5 4 3 3 3 5 4 1
-6 -6 -5 -5 -5 -5 -6 -5 -6 -5 -3 -2 -3 -2 -3 -1 -1 -1 -3 -4 -3 -3 -3 -3 -4 -4 -2 -1 -2 -3 -4 -5 -5 -2 -2 3 4 3 2 2 2 3 2 3 5 5 3
-6 -5 -5 -5 -5 -6 -6 -6 -5 -5 -5 -2 -2 -3 -2 -1 -3 -1 -0 -2 -3 -4 -2 -1 -3 -3 -4 -3 -3 -4 -3 -2 -2 -0 3 3 4 4 3 3 3 2 1 1 4 4 3
-6 -6 -6 -6 -7 -6 -6 -6 -5 -5 -4 -3 -3 -4 -4 -3 -3 -0 -1 -2 -2 -4 -3 -4 -3 -3 -2 -2 -3 -3 -3 -3 -2 -1 -1 -0 3 4 3 2 2 2 1 3 3 2 1
-7 -7 -7 -7 -6 -6 -6 -6 -6 -4 -4 -3 -4 -4 -3 -1 -3 -3 -4 -1 -1 -2 -3 -2 -2 -2 -1 -0 -0 -1 -1 -1 -1 -1 -1 1 2 3 3 3 3 -3 -0 1 3 2 -0
-4 -4 -4 -4 -4 -4 -3 -3 -4 -4 -4 -4 -3 -4 -4 -3 -3 -3 -2 -3 -2 -3 -2 -3 -2 -1 -1 0 3 2 2 1 0 -0 -0 -0 0 1 3 2 1 -2 2 3 6 6 2
-3 -2 -2 -2 -2 -2 -2 -2 -2 -3 -3 -2 -3 -3 -3 -2 -4 -4 -3 -1 -0 -1 -1 -2 -2 -1 1 2 3 2 2 0 0 1 -1 -1 -0 2 3 4 4 1 5 4 3 6 4
-2 -2 -2 -2 -1 -1 -1 -1 -1 -1 -2 -2 -1 -3 -2 -2 -1 -3 -2 -2 -2 -2 -1 -0 0 1 1 2 2 2 -0 -0 2 -0 4 3 3 3 2 2 1 4 4 5 6 5 3
-2 -2 -2 -2 -2 -1 -1 -1 -1 -1 -1 -1 -1 -1 -2 -3 -3 -1 -1 -3 -3 -2 1 1 1 1 1 2 2 1 1 0 -1 -2 3 2 4 4 3 4 4 2 4 4 5 3 3
-2 -2 -2 -2 -3 -2 -2 -1 -1 -1 -1 -1 -1 -1 -1 -2 -1 -2 -5 -3 -3 -2 -1 1 0 1 1 2 0 0 1 0 -0 -0 -3 1 2 3 3 3 3 -0 2 1 0 1 3